Simultaneous Nadir Overpasses (SNOs) Predictions

Prediction of SNOs over PacNW region [( 10.00, 139.50) to ( 22.70, 165.60)] between AQUA and NPP Satellites:

Table of predicted SNOs over PacNW region for the next 30.0 days since TLE Epoch: 2/8/2013
Index Date (AQUA) Time (AQUA) AQUA Lat,Lon Date (NPP) Time (NPP) NPP Lat,Lon Distance(km) Time Diff (sec)
1 02/14/2013 15:59:19 22.60, 147.50 02/14/2013 16:00:10 23.27, 144.57 309.37 51
2 02/22/2013 15:09:39 22.49, 159.91 02/22/2013 15:09:36 23.03, 157.17 286.87 3
3 03/02/2013 15:58:40 22.61, 147.69 03/02/2013 16:00:22 23.33, 144.55 331.61 102




NCC Satellite Simultaneous Nadir Overpasses (SNOs) Prediction Service
